STARLINK-5065, 55641

Orbit data source: Space-Track

STARLINK-5065, 55641 is a payload satellite owned by SpaceX/Seattle (US) in LEO that was launched on Fri, 17 Feb 2023 UTC via an FALCON 9 launch vehicle from the Air Force Western Test Range (AFWTR). Payload-class satellites include a variety of spacecraft equipped with specific instruments for various scientific and technological missions. These include communications satellites like Starlink; space stations such as the ISS; scientific satellites like the Hubble; Earth observation satellites from companies like Planet Labs, Umbra, and HawkEye 360; GPS; miniature CubeSats for education and research; and military/defense satellites.

Loading next visibility...
Identifier
55641, 2023-021P
Orbit
LEO
Country
Flag of USUS
Related business
Manufacturer
SpaceX/Seattle
Mission
Operational Commercial Communications
Bus & Motor
STARLINK, Unknown motor
Mass
305 kg wet, ~290 kg dry
Launch date (UTC)
2023-02-17 (3 years ago)
Launch vehicle
FALCON 9
Launch site
Air Force Western Test Range (AFWTR)
Object type
Payload
Rocket body
Debris
Shape & HBR
Box + 1 Pan, 10.1 m
Radar Cross Section
13.562 m², Large (>1 m²)

Expand to show TLE details & history
Last TLE update: 2 days ago

TLE from 2 days ago
0 STARLINK-5065
1 55641U 23021P   26171.40412933  .00000137  00000-0  19296-4 0  9994
2 55641  69.9994 285.6079 0003527 267.5662  92.5093 14.98330251184172
Epoch: 2026-06-20T09:41Z
TLE epoch observation values (Epoch: 2026-06-20T09:41:56.774Z)
Latitude
-0.00003°
Longitude
-128.49791°
Altitude
574.587 km
Speed
7.574 km/s
True Right ascension
19h 02m 25s
True Declination
0° 00' 00"
Sunlit
Object was in full shadow at epoch
Visualization orbit readout
Latitude
Unknown
Longitude
Unknown
Altitude
Unknown
Speed
Unknown
Apparent Right ascension
Unknown
Apparent Declination
Unknown
Sunlit
N/A
Visualization observer readout
Local Sidereal Time
21:36:20
Azimuth
Unknown
Elevation
Unknown
Doppler factor
Unknown
Orbital elements
Apogee altitude
572.454 km
Perigee altitude
567.553 km
Semi-major axis
6,948.14 km
Eccentricity
0.00035
Inclination
69.9994°
RAAN
285.6079°
Arg. of periapsis
267.5662°
True anomaly
92.54968°
Mean anomaly
92.5093°
Eccentric anomaly
92.52949°
Mean motion
3.74749 °/min
Orbital period
96.06 mins
BSTAR
0.000019296
Loading maneuver chart data...
Computing Atmospheric mass density...

Documentation

Showing up to 5 results
|